Weather History for Coronach, SK

Change the Weather History Date:

Friday, September 6, 2013

  Actual Average Record
Temperature  
Mean Temperature 75 °F -  
Max Temperature 89 °F - - ()
Min Temperature 61 °F - - ()
Cooling Degree Days 10    
Growing Degree Days 25 (Base 50)    
Moisture  
Dew Point 59 °F    
Average Humidity 61    
Maximum Humidity 93    
Minimum Humidity 29    
Precipitation  
Precipitation 0.01 in - - ()
Sea Level Pressure  
Sea Level Pressure 29.92 in    
Wind  
Wind Speed 6 mph ()    
Max Wind Speed 16 mph    
Max Gust Speed 24 mph    
T = Trace of Precipitation, MM = Missing Value Source: Averaged Metar Reports

Daily Weather History Graph

Daily Weather History Graph

Search for Another Location

Airport:

Trip Planner

Search our weather history database for the weather conditions in past years. The results will help you decide how hot, cold, wet, or windy it might be!

Date:

Astronomy

Sep. 06, 2013 Rise Set
Actual Time 6:26 AM CST 7:33 PM CST
Civil Twilight 5:53 AM CST 8:05 PM CST
Nautical Twilight 5:14 AM CST 8:44 PM CST
Astronomical Twilight 4:32 AM CST 9:26 PM CST
Moon 7:52 AM CST (9/6) 7:45 PM CST (9/6)
Length of Visible Light 14h 12m
Length of Day
13h 07m
New Moon, 2% of the Moon is Illuminated
Sep 6
New Moon
Sep 12
First Quarter
Sep 19
Full
Sep 26
Last Quarter
Oct 4
New

Hourly Weather History & Observations

Time (CST) Temp. Heat Index Dew Point Humidity Pressure Visibility Wind Dir Wind Speed Gust Speed Precip Events Conditions
12:00 AM 67 °F - 60 °F 71% 29.89 in - NW 3.5 mph - -  
12:00 AM 66.7 °F - 59.7 °F 78% 29.89 in - NW 3.5 mph - N/A   Unknown
1:00 AM 76.5 °F - 60.8 °F 58% 29.91 in - West 11.5 mph - N/A   Unknown
2:00 AM 69.4 °F - 63.0 °F 80% 29.91 in - West 6.9 mph - N/A   Unknown
3:00 AM 70.7 °F - 63.0 °F 76% 29.86 in - ENE 2.3 mph - N/A   Unknown
4:00 AM 66.7 °F - 63.0 °F 88% 29.87 in - North 3.5 mph - N/A   Unknown
5:00 AM 61.9 °F - 59.9 °F 93% 29.87 in - WSW 3.5 mph - N/A   Unknown
6:00 AM 68 °F - 62 °F 76% 29.88 in - South 15.0 mph - -  
6:00 AM 68.2 °F - 62.1 °F 81% 29.88 in - South 15.0 mph 24.2 mph 0.01 in   Unknown
7:00 AM 66.4 °F - 63.0 °F 89% 29.90 in - NNW 6.9 mph - 0.01 in   Unknown
8:00 AM 66.6 °F - 62.8 °F 88% 29.92 in - NNW 4.6 mph - N/A   Unknown
9:00 AM 73.4 °F - 64.0 °F 72% 29.92 in - WNW 4.6 mph - N/A   Unknown
10:00 AM 80.4 °F 82.0 °F 64.0 °F 57% 29.92 in - East 5.8 mph - N/A   Unknown
11:00 AM 83.7 °F 83.9 °F 60.6 °F 46% 29.92 in - East 4.6 mph - N/A   Unknown
12:00 PM 85 °F - 58 °F 29% 29.92 in - North 5.8 mph - -  
12:00 PM 85.5 °F 84.6 °F 57.7 °F 39% 29.92 in - North 5.8 mph - N/A   Unknown
1:00 PM 87.4 °F 85.5 °F 53.8 °F 32% 29.91 in - NE 5.8 mph - N/A   Unknown
2:00 PM 88.7 °F 86.5 °F 53.4 °F 30% 29.91 in - East 4.6 mph - N/A   Unknown
3:00 PM 89.4 °F 87.5 °F 54.7 °F 31% 29.91 in - North 6.9 mph - N/A   Unknown
4:00 PM 88.5 °F 86.3 °F 53.1 °F 30% 29.92 in - North 12.7 mph - N/A   Unknown
5:00 PM 84.7 °F 83.7 °F 56.7 °F 38% 29.92 in - NNE 16.1 mph 21.9 mph N/A   Unknown
6:00 PM 82.2 °F 81.6 °F 55.9 °F 40% 29.93 in - NNE 13.8 mph 19.6 mph N/A   Unknown
7:00 PM 77.0 °F - 60.1 °F 56% 29.96 in - North 9.2 mph - N/A   Unknown
8:00 PM 73.0 °F - 61.2 °F 66% 29.97 in - North 6.9 mph - N/A   Unknown
9:00 PM 71.8 °F - 60.8 °F 68% 29.98 in - NNE 10.4 mph - N/A   Unknown
10:00 PM 69.3 °F - 57.0 °F 65% 29.98 in - NNE 9.2 mph - N/A   Unknown
11:00 PM 67.6 °F - 55.4 °F 65% 29.99 in - NNE 5.8 mph - N/A   Unknown